[[{"header":{"parameterUnit":"m.s-1","parameterCategory":1,"la1":30.2991,"la2":30.254,"lo1":-89.0895,"lo2":-89.0444,"dy":0.0017,"dx":0.0017,"nx":28,"ny":28,"refTime":"2024-05-20T21:00:00:Z","depth":0,"parameterNumber":2,"parameterNumberName":"U-component_of_WINDS"},"data":[0,0,0,0,0,0,0,0,0,0,0,0,0,0,0,0,0,0,0,0,0,0,0,0,0,0,0,0,0,0,0,0,0,0,0,0,0,0,0,0,0,0,0,0,0,0,0,0,0,0,0,0,0,0,0,0,0,0,-3.1889,-3.1888,0,-3.1831,-3.183,-3.183,-3.1712,-3.171,-3.1707,-3.1705,-3.165,-3.1651,-3.1651,0,0,0,0,0,0,0,0,0,0,0,0,0,-3.1902,-3.1903,-3.1889,-3.1888,-3.1887,-3.1831,-3.183,-3.183,-3.1713,-3.171,-3.1707,-3.1704,-3.165,-3.1651,-3.1651,0,0,0,0,0,0,0,0,0,0,0,0,0,-3.1876,-3.1903,-3.1889,-3.1822,-3.1815,-3.1831,-3.183,-3.1829,-3.1713,-3.171,-3.1706,-3.1703,-3.1649,-3.165,-3.1652,-3.1729,0,0,-3.1655,-3.1655,0,0,0,0,0,0,0,0,-3.1878,-3.1876,-3.1832,-3.1827,-3.1819,-3.1775,-3.1815,-3.1796,-3.1714,-3.1752,-3.1705,-3.1701,-3.1695,-3.1692,-3.1689,-3.1726,-3.1724,-3.1655,-3.1656,-3.1656,-3.1656,0,0,0,0,0,0,0,-3.188,-3.1877,-3.1866,-3.1832,-3.1824,-3.1797,-3.1789,-3.1811,-3.1744,-3.1748,-3.174,-3.1734,-3.169,-3.1688,-3.1687,-3.1723,-3.1655,-3.1656,-3.1657,-3.1657,-3.1823,-3.1827,0,0,0,0,0,0,-3.189,-3.188,-3.1868,-3.1864,-3.184,-3.1799,-3.1791,-3.1793,-3.1743,-3.1732,-3.1738,-3.1729,-3.1688,-3.1686,-3.1684,-3.1772,-3.1656,-3.1657,-3.1658,-3.182,-3.1824,-3.1828,0,0,0,0,0,0,-3.1891,-3.189,-3.187,-3.187,-3.1865,-3.1803,-3.1806,-3.1794,-3.1791,-3.1735,-3.1723,-3.1747,-3.1685,-3.1683,-3.1719,-3.1768,-3.1658,-3.1659,-3.1815,-3.1821,-3.1826,-3.1947,0,0,0,0,0,0,-3.1892,-3.1891,-3.1919,-3.1871,-3.1865,-3.1904,-3.1809,-3.1795,-3.1793,-3.1781,-3.1741,-3.1731,-3.1682,-3.1718,-3.172,-3.1768,-3.1659,-3.181,-3.1818,-3.1824,-3.1939,-3.1956,-3.1972,0,0,0,0,0,-3.1893,-3.1955,-3.1921,-3.192,-3.1898,-3.1907,-3.1904,-3.1846,-3.1797,-3.1825,-3.179,-3.1732,-3.1763,-3.1723,-3.1724,-3.1773,-3.1807,-3.1816,-3.1824,-3.1931,-3.1953,-3.1971,0,0,0,0,0,0,-3.2011,-3.1948,-3.1908,-3.1957,-3.1938,-3.1887,-3.192,-3.187,-3.1866,-3.1855,-3.1785,-3.1777,-3.1822,-3.1801,-3.1757,-3.1846,-3.1776,-3.1785,-3.1857,-3.1877,-3.1894,-3.1897,-3.166,0,0,0,0,0,-3.2043,-3.2054,-3.1999,-3.2047,-3.204,-3.1982,-3.1984,-3.1941,-3.1919,-3.1911,-3.1878,-3.186,-3.1866,-3.1871,-3.1873,-3.1936,-3.1926,-3.1971,-3.1988,-3.2002,-3.201,-3.2043,-3.2062,-3.1856,-3.1856,-3.1856,0,0,-3.2108,-3.2075,-3.2086,-3.207,-3.205,-3.2065,-3.1976,-3.1995,-3.2006,-3.1914,-3.1945,-3.1922,-3.1897,-3.1947,-3.1968,-3.1931,-3.2065,-3.2012,-3.2024,-3.2024,-3.2053,-3.2073,-3.209,-3.1862,-3.1861,-3.186,0,0,-3.2234,-3.221,-3.2248,-3.223,-3.2202,-3.2164,-3.2173,-3.213,-3.2111,-3.2141,-3.2073,-3.2086,-3.2098,-3.2083,-3.2078,-3.2203,-3.215,-3.2206,-3.2291,-3.2325,-3.2341,-3.2355,-3.2399,-3.2416,-3.2215,-3.2215,-3.2215,0,-3.2318,-3.2336,-3.2274,-3.2297,-3.2293,-3.2211,-3.225,-3.2237,-3.2211,-3.2211,-3.2171,-3.2184,-3.2162,-3.2208,-3.2239,-3.2238,-3.2247,-3.2209,-3.2343,-3.2357,-3.2369,-3.241,-3.2427,-3.2222,-3.2221,-3.2221,-3.222,0,-3.2442,-3.2456,-3.249,-3.2467,-3.2467,-3.2499,-3.2443,-3.2451,-3.241,-3.2377,-3.241,-3.2382,-3.2377,-3.2386,-3.2345,-3.2427,-3.2405,-3.2356,-3.2283,-3.2396,-3.2434,-3.245,-3.2232,-3.2229,-3.2227,-3.2226,0,0,-3.2636,-3.258,-3.2594,-3.2583,-3.2547,-3.2558,-3.2588,-3.2582,-3.2591,-3.2578,-3.2601,-3.2614,-3.2568,-3.2562,-3.2521,-3.255,-3.2652,-3.2497,-3.2495,-3.2525,-3.274,-3.2776,-3.2796,-3.2618,-3.2621,-3.2623,-3.2742,0,-3.2753,-3.2797,-3.2743,-3.28,-3.2813,-3.2738,-3.2764,-3.2746,-3.2717,-3.2726,-3.2695,-3.2705,-3.2644,-3.264,-3.2666,-3.2634,-3.2693,-3.2625,-3.2639,-3.264,-3.2645,-3.2815,-3.2853,-3.2966,-3.2757,-3.2759,-3.2761,0,-3.2893,-3.2886,-3.2944,-3.2906,-3.291,-3.2934,-3.2926,-3.2935,-3.2915,-3.2892,-3.2887,-3.2837,-3.2866,-3.2798,-3.2837,-3.2791,-3.2795,-3.2781,-3.2784,-3.2781,-3.2706,-3.2816,-3.3001,-3.3018,-3.2784,-3.2782,-3.278,0,-3.3028,-3.3033,-3.3068,-3.3062,-3.302,-3.3038,-3.3022,-3.2998,-3.2999,-3.2994,-3.2994,-3.2993,-3.2992,-3.2993,-3.2946,-3.2901,-3.2991,-3.2919,-3.2973,-3.2975,-3.2993,-3.2992,-3.318,-3.3,-3.2999,-3.2999,-3.2999,0,-3.3162,-3.32,-3.3128,-3.315,-3.3192,-3.3132,-3.3175,-3.3152,-3.3132,-3.3149,-3.3086,-3.3103,-3.304,-3.3053,-3.3016,-3.3054,-3.3055,-3.3038,-3.3027,-3.3042,-3.3044,-3.3041,-3.3032,-3.3004,-3.3003,-3.3002,-3.3001,0,-3.3317,-3.3271,-3.3305,-3.3263,-3.3254,-3.3286,-3.3251,-3.327,-3.3239,-3.3262,-3.3264,-3.3215,-3.3226,-3.318,-3.3183,-3.3159,-3.3215,-3.3193,-3.3221,-3.3214,-3.327,-3.3265,-3.3461,-3.3484,-3.3291,-3.3293,-3.3295,0,-3.3404,-3.3432,-3.3394,-3.34,-3.3387,-3.3399,-3.34,-3.3344,-3.3348,-3.3329,-3.3351,-3.3357,-3.3358,-3.338,-3.3346,-3.3349,-3.3325,-3.3394,-3.3325,-3.334,-3.3325,-3.3323,-3.3325,-3.3407,-3.341,-3.3412,-3.3413,0,-3.3564,-3.3541,-3.3544,-3.354,-3.3544,-3.3538,-3.3529,-3.3539,-3.3479,-3.3487,-3.3497,-3.3499,-3.3503,-3.351,-3.3507,-3.3492,-3.3443,-3.3436,-3.3448,-3.3462,-3.3477,-3.3469,-3.3258,-3.3431,-3.3429,-3.3428,-3.3427,-3.3426,-3.3687,-3.3708,-3.3685,-3.3691,-3.3679,-3.3673,-3.3689,-3.366,-3.3667,-3.3665,-3.3633,-3.365,-3.3633,-3.3623,-3.3613,-3.3627,-3.3595,-3.3613,-3.3617,-3.3622,-3.3631,-3.3478,-3.3627,-3.3626,-3.3626,-3.3625,-3.3625,0,-3.3841,-3.3824,-3.3831,-3.382,-3.3826,-3.378,-3.3769,-3.3777,-3.3792,-3.378,-3.3783,-3.3796,-3.3804,-3.3772,-3.3775,-3.3793,-3.3771,-3.3795,-3.3792,-3.379,-3.366,-3.3648,-3.3813,-3.3813,-3.3813,-3.3813,-3.3813,-3.3813,-3.3922,-3.3956,-3.3931,-3.3959,-3.3941,-3.3956,-3.3954,-3.3949,-3.3938,-3.3955,-3.3961,-3.394,-3.392,-3.3922,-3.3928,-3.3919,-3.3922,-3.3955,-3.3938,-3.3817,-3.3799,-3.3781,-3.3769,-3.3956,-3.3957,-3.4065,-3.4066,-3.4067]},{"header":{"parameterUnit":"m.s-1","parameterCategory":1,"la1":30.2991,"la2":30.254,"lo1":-89.0895,"lo2":-89.0444,"dy":0.0017,"dx":0.0017,"nx":28,"ny":28,"refTime":"2024-05-20T21:00:00:Z","depth":0,"parameterNumber":3,"parameterNumberName":"V-component_of_WINDS"},"data":[0,0,0,0,0,0,0,0,0,0,0,0,0,0,0,0,0,0,0,0,0,0,0,0,0,0,0,0,0,0,0,0,0,0,0,0,0,0,0,0,0,0,0,0,0,0,0,0,0,0,0,0,0,0,0,0,0,0,3.0634,3.0634,0,3.0623,3.0623,3.0623,3.0681,3.0682,3.0684,3.0686,3.0667,3.0665,3.0663,0,0,0,0,0,0,0,0,0,0,0,0,0,3.07,3.0698,3.0634,3.0634,3.0634,3.0623,3.0623,3.0623,3.068,3.0682,3.0684,3.0686,3.0668,3.0665,3.0663,0,0,0,0,0,0,0,0,0,0,0,0,0,3.0678,3.0698,3.0634,3.0662,3.0664,3.0623,3.0623,3.0623,3.068,3.0683,3.0685,3.0687,3.0669,3.0666,3.0663,3.0593,0,0,3.0653,3.0652,0,0,0,0,0,0,0,0,3.0679,3.0676,3.0658,3.066,3.0662,3.0656,3.064,3.0613,3.0679,3.0674,3.0686,3.0689,3.0661,3.0659,3.0651,3.0592,3.0592,3.0653,3.0651,3.065,3.0649,0,0,0,0,0,0,0,3.0681,3.0676,3.063,3.0657,3.066,3.0673,3.0672,3.0635,3.0653,3.0674,3.0679,3.0677,3.0663,3.0654,3.0651,3.0591,3.0653,3.065,3.0648,3.0647,3.0475,3.0473,0,0,0,0,0,0,3.068,3.0677,3.063,3.063,3.0677,3.067,3.0669,3.0655,3.0654,3.0656,3.0675,3.068,3.0658,3.0654,3.065,3.0568,3.065,3.0647,3.0645,3.0478,3.0475,3.0472,0,0,0,0,0,0,3.0681,3.0675,3.0631,3.0655,3.065,3.0666,3.065,3.0654,3.0645,3.0654,3.0657,3.0662,3.066,3.0655,3.0608,3.0569,3.0645,3.0643,3.0481,3.0477,3.0473,3.0404,0,0,0,0,0,0,3.0682,3.0675,3.065,3.0654,3.0649,3.0589,3.0648,3.0652,3.064,3.0647,3.0643,3.0645,3.0661,3.0612,3.0604,3.0566,3.064,3.0485,3.0479,3.0475,3.041,3.0398,3.0388,0,0,0,0,0,3.0685,3.0629,3.0648,3.0642,3.0618,3.0587,3.0584,3.0605,3.0637,3.0611,3.0617,3.0645,3.0575,3.0607,3.0599,3.0558,3.0487,3.0481,3.0475,3.0414,3.04,3.0388,0,0,0,0,0,0,3.0617,3.063,3.0651,3.0596,3.059,3.0597,3.0564,3.0589,3.0573,3.0579,3.0605,3.0603,3.0551,3.0551,3.0586,3.0491,3.0536,3.0528,3.0493,3.048,3.0469,3.0469,3.0638,0,0,0,0,0,3.0596,3.0572,3.0584,3.0534,3.053,3.0548,3.0535,3.0553,3.0547,3.0544,3.0546,3.0538,3.0514,3.0497,3.0476,3.0411,3.041,3.038,3.0369,3.036,3.0352,3.0317,3.0303,3.0452,3.0452,3.0452,0,0,3.0551,3.0556,3.0538,3.052,3.0518,3.049,3.0545,3.0513,3.0493,3.0538,3.0494,3.0496,3.0488,3.0432,3.0407,3.043,3.0311,3.0352,3.0345,3.0341,3.0309,3.0295,3.0283,3.0448,3.0448,3.0449,0,0,3.0455,3.0457,3.0416,3.0413,3.041,3.0423,3.0413,3.0416,3.042,3.0377,3.0411,3.0386,3.0344,3.0338,3.0328,3.0233,3.0258,3.0226,3.0167,3.0133,3.0122,3.0111,3.0075,3.0063,3.0218,3.0218,3.0218,0,3.0399,3.0361,3.039,3.0357,3.0347,3.0392,3.0348,3.0344,3.0333,3.0324,3.0351,3.0301,3.0299,3.0241,3.0218,3.021,3.0198,3.0224,3.0122,3.0111,3.0102,3.0068,3.0055,3.0214,3.0214,3.0215,3.0215,0,3.0292,3.0265,3.0232,3.0223,3.021,3.0172,3.0193,3.0177,3.0197,3.0206,3.0161,3.0161,3.014,3.0129,3.0146,3.0074,3.0088,3.0118,3.0163,3.0083,3.0052,3.0039,3.0208,3.021,3.0211,3.0212,0,0,3.0149,3.016,3.0146,3.0143,3.0145,3.0123,3.0087,3.007,3.0054,3.0046,3.0015,2.9981,3.0009,2.9999,3.0017,2.9987,2.991,3.002,3.0021,2.9998,2.9828,2.9804,2.9788,2.9928,2.9926,2.9924,2.9828,0,3.0054,2.9995,3.0021,2.9958,2.9933,2.9975,2.9944,2.994,2.9949,2.9928,2.9937,2.9911,2.9951,2.9945,2.9919,2.9925,2.9876,2.9933,2.9897,2.9895,2.9895,2.9772,2.9746,2.9655,2.9816,2.9814,2.9813,0,2.9934,2.9924,2.9859,2.9866,2.9856,2.9828,2.9814,2.9794,2.9791,2.98,2.979,2.9815,2.9778,2.9827,2.9776,2.9814,2.9801,2.9803,2.98,2.9794,2.9847,2.9761,2.9627,2.9613,2.9794,2.9796,2.9797,0,2.9834,2.9804,2.9762,2.9758,2.9765,2.9744,2.9746,2.9746,2.9734,2.9722,2.9714,2.9697,2.9687,2.9673,2.9692,2.9726,2.9638,2.9688,2.9641,2.9641,2.9618,2.9618,2.9477,2.9615,2.9615,2.9615,2.9615,0,2.9724,2.9681,2.9717,2.969,2.9644,2.9675,2.9628,2.9635,2.9635,2.9609,2.9645,2.962,2.9648,2.9625,2.964,2.9595,2.9591,2.9595,2.9598,2.959,2.9589,2.9579,2.9585,2.9612,2.9612,2.9613,2.9614,0,2.9602,2.9625,2.9581,2.9593,2.9595,2.956,2.957,2.9545,2.9558,2.9525,2.9518,2.9537,2.9512,2.9532,2.9506,2.9516,2.9456,2.947,2.9457,2.946,2.9412,2.9416,2.9258,2.9238,2.939,2.9389,2.9387,0,2.9529,2.9498,2.9508,2.9494,2.9495,2.9472,2.9461,2.9491,2.9477,2.9473,2.9448,2.9427,2.9411,2.9369,2.9379,2.936,2.9372,2.9318,2.9369,2.9361,2.9369,2.9369,2.9365,2.9306,2.9305,2.9303,2.9302,0,2.9395,2.9408,2.9392,2.938,2.9367,2.9358,2.9352,2.9338,2.9369,2.9352,2.9328,2.9316,2.9292,2.927,2.9255,2.9255,2.9282,2.9287,2.9275,2.9264,2.9257,2.9258,2.9426,2.9289,2.9291,2.9291,2.9292,2.9293,2.9294,2.9269,2.9272,2.9253,2.9252,2.9246,2.9224,2.9235,2.9217,2.92,2.9219,2.919,2.9188,2.9172,2.9169,2.9145,2.9167,2.915,2.9145,2.914,2.9132,2.9264,2.9143,2.9143,2.9144,2.9144,2.9144,0,2.916,2.9166,2.9148,2.914,2.9125,2.9157,2.9152,2.9136,2.9111,2.9108,2.9093,2.9066,2.9045,2.9055,2.9037,2.9016,2.9028,2.901,2.901,2.9009,2.9114,2.9126,2.9,2.9,2.9,2.9001,2.9001,2.9001,2.9089,2.9047,2.9061,2.902,2.9025,2.8999,2.8993,2.8987,2.8986,2.8955,2.8939,2.8947,2.8949,2.8931,2.8913,2.8917,2.8907,2.8884,2.8891,2.8988,2.9002,2.9015,2.9026,2.8882,2.8882,2.8788,2.8787,2.8786]}]]